Starlink 5846

operational
NORAD ID: 56492 Int'l Des: 2023-064 Owner: SPXS Country: US Constellation: starlink
LEOCIRCULAR

Starlink 5846について

説明を読み込み中...

リアルタイム位置

3D地球を読み込み中...

次回通過

高度履歴

Altitude vs Time

uPlot chart will show altitude changes over time

軌道要素

1 56492U 23064AW 26063.15189943 .00000502 00000-0 49875-4 0 9992
2 56492 69.9994 118.3954 0003269 265.9648 94.1137 14.98331199155403
Epoch: Mar 4, 2026 • Age: 11 hours

現在のステータス

高度 591.1 km
速度 7.56 km/s
衛星直下点 -55.41°S, 112.9°E
打ち上げ日 May 10, 2023
運用期間 2.8 years
タイプ internet

技術仕様

分類 Payload
質量 305.00 kg
乾燥質量 290.00 kg
総質量 305.00 kg
長さ 0.20 m
直径 2.80 m
スパン 9.00 m
形状 Box + pan
製造者 SPXS
バスタイプ Starlink
フェーズステータス In Orbit
所有者/国 SPXS/US

大規模コンステレーション

Loading constellations...